TimeCST,TemperatureF,Dew PointF,Humidity,Sea Level PressureIn,VisibilityMPH,Wind Direction,Wind SpeedMPH,Gust SpeedMPH,PrecipitationIn,Events,Conditions,WindDirDegrees,DateUTC
12:52 AM,36.0,28.0,73,30.31,10.0,SSE,10.4,-,N/A,,Clear,160,2013-11-30 06:52:00
1:52 AM,35.1,28.0,76,30.31,10.0,SSE,9.2,-,N/A,,Clear,150,2013-11-30 07:52:00
2:52 AM,35.1,27.0,72,30.30,10.0,SSE,10.4,-,N/A,,Clear,160,2013-11-30 08:52:00
3:52 AM,36.0,27.0,70,30.28,10.0,SSE,11.5,-,N/A,,Clear,160,2013-11-30 09:52:00
4:52 AM,35.1,27.0,72,30.27,10.0,SSE,12.7,-,N/A,,Clear,160,2013-11-30 10:52:00
5:52 AM,36.0,26.1,67,30.26,10.0,SSE,12.7,-,N/A,,Clear,160,2013-11-30 11:52:00
6:52 AM,36.0,26.1,67,30.25,10.0,SSE,13.8,-,N/A,,Clear,160,2013-11-30 12:52:00
7:52 AM,37.9,27.0,65,30.24,10.0,South,15.0,-,N/A,,Clear,170,2013-11-30 13:52:00
8:52 AM,43.0,28.9,58,30.23,10.0,South,16.1,-,N/A,,Clear,180,2013-11-30 14:52:00
9:52 AM,46.9,33.1,59,30.22,10.0,South,18.4,-,N/A,,Clear,180,2013-11-30 15:52:00
10:52 AM,52.0,36.0,54,30.21,10.0,SSW,13.8,-,N/A,,Clear,200,2013-11-30 16:52:00
11:52 AM,55.9,37.9,51,30.17,10.0,SSW,13.8,-,N/A,,Clear,200,2013-11-30 17:52:00
12:52 PM,57.9,39.0,49,30.15,10.0,WSW,16.1,-,N/A,,Clear,240,2013-11-30 18:52:00
1:52 PM,60.1,39.9,47,30.12,10.0,SW,17.3,21.9,N/A,,Clear,220,2013-11-30 19:52:00
2:52 PM,60.1,41.0,49,30.11,10.0,SSW,17.3,-,N/A,,Clear,200,2013-11-30 20:52:00
3:52 PM,57.9,39.9,51,30.11,10.0,SW,12.7,-,N/A,,Clear,220,2013-11-30 21:52:00
4:52 PM,52.0,39.9,63,30.12,10.0,SW,8.1,-,N/A,,Clear,230,2013-11-30 22:52:00
5:52 PM,46.0,37.9,73,30.13,10.0,SW,8.1,-,N/A,,Clear,220,2013-11-30 23:52:00
6:52 PM,43.0,37.0,80,30.15,10.0,SSW,6.9,-,N/A,,Clear,210,2013-12-01 00:52:00
7:52 PM,44.1,37.9,79,30.15,10.0,SSW,6.9,-,N/A,,Clear,210,2013-12-01 01:52:00
8:34 PM,45.0,39.0,80,30.12,10.0,SSW,5.8,-,N/A,,Mostly Cloudy,200,2013-12-01 02:34:00
8:52 PM,46.0,39.9,79,30.14,10.0,SSW,8.1,-,N/A,,Overcast,210,2013-12-01 02:52:00
9:52 PM,48.0,42.1,80,30.14,10.0,SW,5.8,-,N/A,,Overcast,220,2013-12-01 03:52:00
10:12 PM,45.0,39.9,82,30.13,10.0,SSW,5.8,-,N/A,,Scattered Clouds,200,2013-12-01 04:12:00
10:52 PM,43.0,39.0,86,30.13,10.0,South,6.9,-,N/A,,Clear,170,2013-12-01 04:52:00
11:52 PM,41.0,37.0,86,30.14,10.0,South,8.1,-,N/A,,Clear,180,2013-12-01 05:52:00